[[{"header":{"parameterUnit":"m.s-1","parameterCategory":1,"la1":30.2991,"la2":30.254,"lo1":-89.0895,"lo2":-89.0444,"dy":0.0017,"dx":0.0017,"nx":28,"ny":28,"refTime":"2023-09-01T21:00:00:Z","depth":0,"parameterNumber":2,"parameterNumberName":"U-component_of_WINDS"},"data":[0,0,0,0,0,0,0,0,0,0,0,0,0,0,0,0,0,0,0,0,0,0,0,0,0,0,0,0,0,0,0,0,0,0,0,0,0,0,0,0,0,0,0,0,0,0,0,0,0,0,0,0,0,0,0,0,0,0,0.1297,0.1299,0,0.1479,0.1481,0.1484,0.1491,0.1488,0.1486,0.1484,0.1692,0.1699,0.1707,0,0,0,0,0,0,0,0,0,0,0,0,0,0.0974,0.098,0.1296,0.1299,0.1301,0.1479,0.1482,0.1484,0.1491,0.1488,0.1485,0.1483,0.1689,0.1698,0.1708,0,0,0,0,0,0,0,0,0,0,0,0,0,0.1132,0.0982,0.1296,0.1325,0.133,0.1478,0.1482,0.1485,0.1492,0.1488,0.1485,0.1482,0.1686,0.1698,0.1709,0.1847,0,0,0.1744,0.1749,0,0,0,0,0,0,0,0,0.1123,0.1144,0.1319,0.1324,0.1329,0.1458,0.1444,0.1607,0.1492,0.1431,0.1484,0.148,0.1618,0.1635,0.1678,0.1857,0.1866,0.1745,0.1752,0.1757,0.176,0,0,0,0,0,0,0,0.1112,0.1136,0.1369,0.1321,0.1328,0.1336,0.1355,0.1475,0.1542,0.1436,0.1437,0.1457,0.1621,0.1666,0.1682,0.1869,0.1745,0.1755,0.1762,0.1766,0.2176,0.218,0,0,0,0,0,0,0.1092,0.1127,0.1364,0.1375,0.1215,0.1345,0.1366,0.1421,0.154,0.1555,0.146,0.1457,0.1649,0.1669,0.169,0.1862,0.1757,0.1767,0.1774,0.2172,0.2177,0.2181,0,0,0,0,0,0,0.1085,0.1113,0.1356,0.1251,0.1282,0.1354,0.1416,0.1426,0.1471,0.1558,0.1572,0.1493,0.1647,0.1674,0.1807,0.1869,0.1773,0.1783,0.2167,0.2173,0.2179,0.2205,0,0,0,0,0,0,0.1076,0.1111,0.1159,0.1252,0.1288,0.1464,0.1419,0.1432,0.1489,0.1486,0.1593,0.1608,0.1646,0.179,0.1819,0.1883,0.1792,0.2162,0.217,0.2177,0.2199,0.2211,0.2222,0,0,0,0,0,0.1064,0.1163,0.1161,0.119,0.1348,0.1467,0.1489,0.1525,0.1493,0.1546,0.1602,0.1605,0.1857,0.1804,0.1836,0.1905,0.2158,0.2168,0.2176,0.2194,0.2209,0.2222,0,0,0,0,0,0,0.1082,0.1175,0.1175,0.1304,0.1377,0.1468,0.1535,0.1539,0.1628,0.1623,0.167,0.1695,0.1828,0.188,0.1819,0.2047,0.2005,0.2021,0.2008,0.2023,0.2034,0.202,0.1801,0,0,0,0,0,0.1099,0.1181,0.1262,0.1369,0.1405,0.1464,0.1517,0.1538,0.1618,0.1651,0.1717,0.1801,0.19,0.1964,0.2059,0.2207,0.2233,0.2271,0.2282,0.229,0.2305,0.2391,0.241,0.2211,0.221,0.221,0,0,0.114,0.1201,0.1251,0.1374,0.1433,0.1524,0.149,0.1587,0.1657,0.1669,0.1797,0.1849,0.1946,0.2087,0.2153,0.2135,0.2365,0.2302,0.2308,0.2318,0.2402,0.2421,0.2438,0.2217,0.2216,0.2215,0,0,0.1259,0.1311,0.1407,0.1465,0.1553,0.1591,0.1614,0.1705,0.1738,0.1866,0.1877,0.1965,0.2133,0.2202,0.226,0.2406,0.2414,0.2437,0.2497,0.258,0.2596,0.261,0.2666,0.2685,0.245,0.245,0.245,0,0.1299,0.1429,0.1458,0.1554,0.161,0.1618,0.172,0.1778,0.1895,0.1937,0.1913,0.2124,0.219,0.235,0.2385,0.243,0.2464,0.2426,0.259,0.2605,0.2619,0.2673,0.2693,0.2453,0.2452,0.2452,0.2452,0,0.1476,0.1567,0.1635,0.1741,0.1805,0.1904,0.1954,0.2017,0.2033,0.2077,0.2211,0.229,0.2402,0.2442,0.2461,0.2606,0.2592,0.2579,0.2538,0.2639,0.2691,0.2712,0.2456,0.2455,0.2455,0.2454,0,0,0.1612,0.1731,0.1756,0.1805,0.1902,0.1977,0.2079,0.2182,0.2237,0.2319,0.241,0.2551,0.2539,0.2605,0.2633,0.2705,0.2821,0.2684,0.2687,0.2709,0.2991,0.3002,0.3025,0.2825,0.2829,0.2832,0.2984,0,0.1744,0.1916,0.1946,0.2101,0.2189,0.2198,0.2288,0.2362,0.2406,0.2492,0.2544,0.2644,0.2619,0.2659,0.2731,0.2791,0.2879,0.2781,0.2917,0.2922,0.2894,0.3051,0.3063,0.3201,0.3004,0.3007,0.301,0,0.192,0.1999,0.216,0.2247,0.2285,0.2364,0.2463,0.2543,0.263,0.2657,0.2729,0.2749,0.2863,0.2815,0.2976,0.2909,0.2967,0.3006,0.3012,0.3029,0.2973,0.3075,0.3246,0.3268,0.3041,0.3039,0.3037,0,0.2006,0.2154,0.227,0.2311,0.2415,0.2471,0.2519,0.2601,0.2662,0.2751,0.2793,0.2896,0.2954,0.3037,0.3087,0.3047,0.3247,0.3202,0.3279,0.3278,0.3322,0.3319,0.3508,0.3355,0.3355,0.3355,0.3354,0,0.2151,0.2251,0.231,0.2381,0.2495,0.2532,0.2646,0.2694,0.2767,0.2854,0.2871,0.2954,0.3013,0.3107,0.3147,0.3277,0.3303,0.3334,0.3344,0.3334,0.333,0.3374,0.3367,0.336,0.3359,0.3358,0.3357,0,0.2267,0.231,0.2437,0.2524,0.2548,0.2629,0.2707,0.2781,0.2824,0.2934,0.2963,0.3034,0.3145,0.3202,0.3342,0.337,0.3518,0.3521,0.3486,0.3491,0.3565,0.3558,0.3791,0.3826,0.3647,0.3649,0.365,0,0.2357,0.2433,0.2527,0.2582,0.2629,0.2719,0.278,0.2821,0.2886,0.299,0.3054,0.3163,0.3254,0.3432,0.3502,0.361,0.3619,0.3693,0.3636,0.3623,0.3624,0.3619,0.363,0.3704,0.3705,0.3707,0.3708,0,0.2515,0.2532,0.2615,0.2707,0.2778,0.2854,0.293,0.2977,0.3032,0.3105,0.3214,0.3283,0.3424,0.3536,0.3649,0.3707,0.372,0.3724,0.3749,0.374,0.3718,0.3734,0.3517,0.372,0.3719,0.3718,0.3717,0.3717,0.2624,0.2692,0.2768,0.2862,0.2921,0.2992,0.3065,0.3116,0.3206,0.3319,0.334,0.3458,0.3548,0.37,0.3761,0.3859,0.3845,0.3879,0.3888,0.3897,0.3901,0.3699,0.388,0.388,0.388,0.388,0.3879,0,0.2784,0.2833,0.2918,0.302,0.3096,0.3092,0.3177,0.3242,0.3343,0.3422,0.3509,0.3638,0.3746,0.3823,0.3936,0.4,0.4009,0.4029,0.4026,0.404,0.3906,0.3875,0.402,0.402,0.402,0.402,0.402,0.402,0.2876,0.2993,0.302,0.3169,0.3219,0.3329,0.3378,0.3446,0.3508,0.3649,0.3736,0.3783,0.3864,0.3982,0.4085,0.4105,0.4148,0.4168,0.419,0.4064,0.4049,0.4035,0.4006,0.4176,0.4176,0.4316,0.4317,0.4318]},{"header":{"parameterUnit":"m.s-1","parameterCategory":1,"la1":30.2991,"la2":30.254,"lo1":-89.0895,"lo2":-89.0444,"dy":0.0017,"dx":0.0017,"nx":28,"ny":28,"refTime":"2023-09-01T21:00:00:Z","depth":0,"parameterNumber":3,"parameterNumberName":"V-component_of_WINDS"},"data":[0,0,0,0,0,0,0,0,0,0,0,0,0,0,0,0,0,0,0,0,0,0,0,0,0,0,0,0,0,0,0,0,0,0,0,0,0,0,0,0,0,0,0,0,0,0,0,0,0,0,0,0,0,0,0,0,0,0,-1.2307,-1.231,0,-1.2524,-1.2527,-1.2529,-1.2656,-1.2656,-1.2657,-1.2657,-1.2874,-1.2879,-1.2884,0,0,0,0,0,0,0,0,0,0,0,0,0,-1.1997,-1.2002,-1.2307,-1.231,-1.2313,-1.2524,-1.2527,-1.253,-1.2655,-1.2656,-1.2657,-1.2657,-1.2872,-1.2878,-1.2884,0,0,0,0,0,0,0,0,0,0,0,0,0,-1.2164,-1.2003,-1.2307,-1.2401,-1.2412,-1.2523,-1.2527,-1.253,-1.2655,-1.2656,-1.2657,-1.2658,-1.287,-1.2877,-1.2885,-1.2918,0,0,-1.2909,-1.2913,0,0,0,0,0,0,0,0,-1.2154,-1.2175,-1.2384,-1.2395,-1.2407,-1.2564,-1.2497,-1.266,-1.2655,-1.2563,-1.2657,-1.2658,-1.2769,-1.2786,-1.2824,-1.2928,-1.2938,-1.291,-1.2915,-1.2918,-1.2921,0,0,0,0,0,0,0,-1.2143,-1.2167,-1.2393,-1.2387,-1.2401,-1.2431,-1.2455,-1.2528,-1.2659,-1.2571,-1.258,-1.2605,-1.2776,-1.2816,-1.283,-1.2941,-1.291,-1.2917,-1.2922,-1.2925,-1.3081,-1.3081,0,0,0,0,0,0,-1.2117,-1.2156,-1.2386,-1.2399,-1.228,-1.2436,-1.2463,-1.2512,-1.2658,-1.2681,-1.2604,-1.261,-1.2803,-1.2821,-1.2839,-1.2887,-1.2918,-1.2926,-1.293,-1.3082,-1.3081,-1.3081,0,0,0,0,0,0,-1.211,-1.2136,-1.2377,-1.2281,-1.2314,-1.244,-1.2494,-1.2516,-1.2557,-1.2683,-1.2707,-1.2622,-1.2804,-1.2827,-1.2898,-1.2896,-1.2929,-1.2936,-1.3083,-1.3082,-1.3081,-1.2982,0,0,0,0,0,0,-1.21,-1.2133,-1.2148,-1.228,-1.2318,-1.2434,-1.2494,-1.252,-1.2571,-1.2581,-1.2707,-1.2728,-1.2806,-1.2885,-1.2905,-1.2907,-1.2943,-1.3083,-1.3082,-1.3081,-1.2986,-1.2978,-1.2971,0,0,0,0,0,-1.2089,-1.2111,-1.2148,-1.2175,-1.234,-1.2434,-1.2456,-1.2547,-1.2571,-1.2586,-1.2667,-1.2724,-1.2892,-1.2891,-1.2915,-1.2919,-1.3084,-1.3082,-1.3081,-1.299,-1.298,-1.2971,0,0,0,0,0,0,-1.1974,-1.213,-1.2173,-1.2239,-1.2322,-1.2455,-1.2478,-1.2534,-1.2611,-1.2617,-1.2725,-1.2752,-1.2811,-1.2872,-1.2868,-1.2958,-1.2994,-1.2998,-1.2916,-1.2908,-1.2901,-1.2885,-1.2949,0,0,0,0,0,-1.1956,-1.2021,-1.2153,-1.2198,-1.2238,-1.235,-1.2394,-1.2457,-1.2548,-1.2583,-1.2669,-1.2753,-1.2825,-1.287,-1.2943,-1.2995,-1.3024,-1.301,-1.3002,-1.2995,-1.2997,-1.3028,-1.3023,-1.3076,-1.3076,-1.3076,0,0,-1.192,-1.2013,-1.2047,-1.2177,-1.225,-1.2312,-1.2379,-1.2443,-1.249,-1.2592,-1.2665,-1.273,-1.283,-1.2891,-1.2923,-1.2944,-1.2988,-1.2993,-1.2987,-1.2993,-1.3026,-1.3021,-1.3016,-1.3075,-1.3075,-1.3076,0,0,-1.1887,-1.1964,-1.2011,-1.2081,-1.219,-1.2265,-1.2275,-1.24,-1.2448,-1.2522,-1.26,-1.2656,-1.2778,-1.2847,-1.2897,-1.2888,-1.2943,-1.2908,-1.2869,-1.2898,-1.2894,-1.2891,-1.2887,-1.2884,-1.2909,-1.2909,-1.2909,0,-1.1828,-1.1928,-1.2026,-1.2086,-1.214,-1.2237,-1.2283,-1.2347,-1.2473,-1.2507,-1.2529,-1.2684,-1.2758,-1.2836,-1.2834,-1.2872,-1.2886,-1.2895,-1.2887,-1.2885,-1.2883,-1.2881,-1.2879,-1.2904,-1.2905,-1.2905,-1.2906,0,-1.185,-1.1918,-1.1942,-1.2063,-1.212,-1.2172,-1.2276,-1.2321,-1.2379,-1.245,-1.2523,-1.2616,-1.2709,-1.2732,-1.2788,-1.2818,-1.2827,-1.2867,-1.2905,-1.2871,-1.2871,-1.2871,-1.2897,-1.2899,-1.2901,-1.2902,0,0,-1.1752,-1.1926,-1.1933,-1.1989,-1.2116,-1.2169,-1.2225,-1.2318,-1.2354,-1.2437,-1.2485,-1.2585,-1.2623,-1.268,-1.2744,-1.277,-1.2755,-1.2806,-1.281,-1.2793,-1.2792,-1.2762,-1.2759,-1.2792,-1.2793,-1.2793,-1.2784,0,-1.1737,-1.1845,-1.1934,-1.2007,-1.207,-1.2162,-1.2211,-1.2292,-1.2359,-1.2421,-1.2495,-1.2564,-1.2608,-1.2643,-1.2672,-1.2751,-1.2757,-1.2753,-1.2837,-1.2839,-1.2809,-1.2759,-1.2728,-1.2715,-1.2784,-1.2784,-1.2784,0,-1.1735,-1.1816,-1.1896,-1.2016,-1.2045,-1.2087,-1.2179,-1.2237,-1.2331,-1.2378,-1.2441,-1.2508,-1.2569,-1.2601,-1.2685,-1.268,-1.272,-1.2763,-1.2765,-1.2776,-1.2809,-1.2769,-1.2713,-1.271,-1.2785,-1.2785,-1.2785,0,-1.1655,-1.1783,-1.1848,-1.1893,-1.2034,-1.2061,-1.2121,-1.2215,-1.2265,-1.2344,-1.2377,-1.2461,-1.2507,-1.2569,-1.2657,-1.2672,-1.2731,-1.2771,-1.2771,-1.2768,-1.278,-1.2778,-1.2729,-1.2804,-1.2804,-1.2804,-1.2804,0,-1.1629,-1.1674,-1.1814,-1.1854,-1.1906,-1.2007,-1.2056,-1.2123,-1.2206,-1.2259,-1.2342,-1.2389,-1.2502,-1.2562,-1.263,-1.2689,-1.2709,-1.2747,-1.2765,-1.274,-1.2735,-1.2767,-1.277,-1.2804,-1.2804,-1.2804,-1.2804,0,-1.1549,-1.1645,-1.1721,-1.1848,-1.1881,-1.1914,-1.2022,-1.2063,-1.2134,-1.22,-1.2221,-1.2332,-1.2407,-1.2501,-1.2604,-1.265,-1.2702,-1.2729,-1.2671,-1.2681,-1.2676,-1.2674,-1.2646,-1.2647,-1.2721,-1.272,-1.2719,0,-1.1527,-1.1564,-1.1695,-1.1738,-1.1795,-1.1862,-1.1913,-1.2013,-1.2062,-1.2171,-1.2198,-1.2279,-1.235,-1.2465,-1.2554,-1.2633,-1.2662,-1.2647,-1.2675,-1.2648,-1.2662,-1.2658,-1.2662,-1.2639,-1.2638,-1.2637,-1.2636,0,-1.1477,-1.1522,-1.1594,-1.1682,-1.1741,-1.1815,-1.1892,-1.1921,-1.2036,-1.2087,-1.2165,-1.222,-1.2327,-1.2406,-1.2496,-1.2556,-1.2614,-1.2627,-1.2631,-1.2606,-1.2571,-1.2589,-1.2651,-1.2627,-1.2628,-1.2629,-1.2629,-1.2629,-1.1425,-1.1462,-1.156,-1.1637,-1.1706,-1.1775,-1.182,-1.1897,-1.1965,-1.2061,-1.2115,-1.2191,-1.2282,-1.241,-1.2467,-1.2526,-1.2548,-1.2554,-1.2556,-1.2555,-1.2547,-1.2561,-1.2543,-1.2543,-1.2544,-1.2544,-1.2544,0,-1.138,-1.1447,-1.1517,-1.1622,-1.1682,-1.1734,-1.1821,-1.1867,-1.1934,-1.2014,-1.2082,-1.2171,-1.2248,-1.2342,-1.2425,-1.2454,-1.2483,-1.2472,-1.2471,-1.2484,-1.2524,-1.2512,-1.2448,-1.2448,-1.2448,-1.2448,-1.2448,-1.2448,-1.1363,-1.1428,-1.1484,-1.1583,-1.165,-1.1727,-1.1772,-1.1836,-1.1901,-1.1997,-1.2062,-1.2124,-1.221,-1.2299,-1.2371,-1.2396,-1.2423,-1.2404,-1.2437,-1.2472,-1.2481,-1.2489,-1.2479,-1.2409,-1.2409,-1.2392,-1.2392,-1.2392]}]]